Regional Weather Roundup
Issued by NWS

Home | Current Version | Previous Version | Text Only | Print | Product List | Glossary On
Versions: 1 2 3 4 5 6 7 8 9 10 11 12 13 14 15 16 17 18 19 20 21 22 23 24 25 26 27
000
ASUS45 KREV 190010
RWRNV
NEVADA REGIONAL WEATHER ROUNDUP
NATIONAL WEATHER SERVICE RENO NV
500 PM PDT FRI APR 18 2014

NOTE: "FAIR" INDICATES FEW OR NO CLOUDS BELOW 12,000 FEET WITH NO
SIGNIFICANT WEATHER AND/OR OBSTRUCTIONS TO VISIBILITY.

NVZ001-003-004-190100-
WESTERN NEVADA

CITY           SKY/WX    TMP DP  RH WIND       PRES   REMARKS
RENO           PTSUNNY   72  33  24 N8        29.87F
6HR MIN TEMP:  58; 6HR MAX TEMP:  74;

CARSON CITY    PTSUNNY   72  30  21 NW10      29.88F
MINDEN         PTSUNNY   72  37  28 SW14      29.89F
PYRAMID LAKE     N/A     61 N/A N/A N2          N/A
FALLON         MOSUNNY   74  33  22 NE9       29.86F
6HR MIN TEMP:  62; 6HR MAX TEMP:  74;

LOVELOCK       MOSUNNY   71  26  18 NW9       29.87F
6HR MIN TEMP:  60; 6HR MAX TEMP:  72; 6HR PCP: TRACE;

HAWTHORNE      SUNNY     72  34  25 W8        29.86F
$$

NVZ002-CAZ072-073-190100-
NORTHERN AND CENTRAL SIERRA

CITY           SKY/WX    TMP DP  RH WIND       PRES   REMARKS
S. LAKE TAHOE  CLOUDY    57  37  47 S12       29.99R
6HR MIN TEMP:  57; 6HR MAX TEMP:  64;

SQUAW VLY 8000   N/A     43  37  81 VRB14       N/A
SUSANVILLE     SUNNY     70  23  17 NW7       29.90
BLUE CANYON    MOSUNNY   61  39  44 SW8G17    29.99S
MAMMOTH LAKES  PTSUNNY   59  32  36 SW16      30.00F
BRIDGEPORT     FAIR      63  32  31 W13G21    29.93S
$$

NVZ030-031-036-190100-
NORTHERN NEVADA

CITY           SKY/WX    TMP DP  RH WIND       PRES   REMARKS
ELKO           SUNNY     65  30  27 W13       29.92F
6HR MIN TEMP:  54; 6HR MAX TEMP:  66;

WINNEMUCCA     SUNNY     67  10  11 W8        29.92F
6HR MIN TEMP:  56; 6HR MAX TEMP:  69;

WENDOVER       MOSUNNY   66  37  34 E9        29.92S
$$

NVZ035-037-190100-
CENTRAL NEVADA

CITY           SKY/WX    TMP DP  RH WIND       PRES   REMARKS
ELY            CLOUDY    59  33  37 NE14      29.96R
6HR MIN TEMP:  59; 6HR MAX TEMP:  68;

EUREKA           N/A     62  34  35 SE10      29.94F
6HR MIN TEMP:  60; 6HR MAX TEMP:  68;

$$

NVZ013-014-190100-
SOUTH CENTRAL NEVADA

CITY           SKY/WX    TMP DP  RH WIND       PRES   REMARKS
TONOPAH        CLOUDY    66  26  22 CALM      29.92R
6HR MIN TEMP:  65; 6HR MAX TEMP:  71; 6HR PCP: TRACE;

$$

NVZ017-020-022-190100-
SOUTHERN NEVADA

CITY           SKY/WX    TMP DP  RH WIND       PRES   REMARKS
LAS VEGAS      CLOUDY    79  27  14 S12G23    29.77F
6HR MIN TEMP:  76; 6HR MAX TEMP:  81;

N. LAS VEGAS   CLOUDY    78  26  14 SE9       29.81F
6HR MIN TEMP:  76; 6HR MAX TEMP:  80;

NELLIS AFB     PTSUNNY   80  29  15 S12       29.80F
6HR MIN TEMP:  76; 6HR MAX TEMP:  81;

HENDERSON      PTSUNNY   80  29  15 S14G20    29.83F
6HR MIN TEMP:  74; 6HR MAX TEMP:  80;

MERCURY        PTSUNNY   76  29  17 SW21      29.83F
6HR MIN TEMP:  73; 6HR MAX TEMP:  78;

$$



USA.gov is the U.S. government's official web portal to all federal, state and local government web resources and services.